Simultaneous Nadir Overpasses (SNOs) Predictions

Prediction of SNOs between METOP-B and TERRA Satellite Orbit:

Table of predicted SNOs for the next 14.0 days since TLE Epoch: 6/15/2013
Index Date (METOP-B) Time (METOP-B) Lat,Lon (METOP-B) SZA (METOP-B ) Date (TERRA) Time (TERRA) Lat,Lon (TERRA) SZA (TERRA ) Distance(km) Time Diff (sec)
1 06/16/2013 22:25:47 81.29,-109.52 60.80 06/16/2013 22:26:36 81.30,-109.52 60.83 0.46 49
2 06/16/2013 23:16:26 -81.30, 58.18 119.16 06/16/2013 23:16:03 -81.29, 58.02 119.19 2.82 23
3 06/19/2013 18:00:08 81.30, -42.89 60.75 06/19/2013 18:00:50 81.30, -43.08 60.75 3.09 42
4 06/19/2013 18:50:48 -81.30, 124.45 119.25 06/19/2013 18:50:17 -81.29, 124.49 119.26 0.83 31
5 06/22/2013 13:34:31 81.29, 23.31 60.71 06/22/2013 13:35:05 81.29, 23.26 60.72 0.98 34
6 06/
